| time (UTC) | temp C | wind direction | speed KPH | gust KPH | rain 1hr cm | rain 24hr cm | rain mn cm | humidity % | barometer mb |
| 20260505112123 | 15 | 232 | 3.2 | 4.8 | 0.00 | 0.00 | 0.00 | 75 | 1008.6 |
| 20260505111122 | 15 | 225 | 1.6 | 3.2 | 0.00 | 0.00 | 0.00 | 76 | 1008.6 |
| 20260505110123 | 14 | 224 | 0.0 | 4.8 | 0.00 | 0.00 | 0.00 | 77 | 1008.7 |
| 20260505102123 | 14 | 232 | 0.0 | 3.2 | 0.00 | 0.00 | 0.00 | 77 | 1008.3 |
| 20260505101123 | 14 | 236 | 0.0 | 3.2 | 0.00 | 0.00 | 0.00 | 76 | 1008.3 |
| 20260505100122 | 14 | 231 | 1.6 | 3.2 | 0.00 | 0.00 | 0.00 | 76 | 1008.1 |
| 20260505095123 | 14 | 232 | 0.0 | 1.6 | 0.00 | 0.00 | 0.00 | 76 | 1008.1 |
| 20260505094122 | 14 | 229 | 0.0 | 4.8 | 0.00 | 0.00 | 0.00 | 76 | 1008.2 |
| 20260505093122 | 14 | 236 | 0.0 | 3.2 | 0.00 | 0.00 | 0.00 | 76 | 1008.0 |
| 20260505092122 | 14 | 270 | 0.0 | 0.0 | 0.00 | 0.00 | 0.00 | 76 | 1008.2 |
| 20260505091122 | 14 | 225 | 0.0 | 0.0 | 0.00 | 0.00 | 0.00 | 75 | 1008.2 |
| 20260505090122 | 14 | 90 | 0.0 | 0.0 | 0.00 | 0.00 | 0.00 | 75 | 1008.0 |
| 20260505085122 | 15 | 225 | 0.0 | 0.0 | 0.00 | 0.00 | 0.00 | 75 | 1008.0 |
| 20260505084122 | 15 | 74 | 0.0 | 3.2 | 0.00 | 0.00 | 0.00 | 74 | 1008.0 |
| 20260505083122 | 15 | 103 | 0.0 | 3.2 | 0.00 | 0.00 | 0.00 | 74 | 1007.9 |
| 20260505082122 | 15 | 90 | 0.0 | 0.0 | 0.00 | 0.00 | 0.00 | 74 | 1007.7 |
| 20260505081122 | 15 | 23 | 0.0 | 0.0 | 0.00 | 0.00 | 0.00 | 74 | 1007.7 |
| 20260505080123 | 15 | 225 | 0.0 | 0.0 | 0.00 | 0.00 | 0.00 | 74 | 1007.8 |
| 20260505075123 | 15 | 225 | 0.0 | 0.0 | 0.00 | 0.00 | 0.00 | 74 | 1007.7 |
| 20260505074143 | 15 | 225 | 0.0 | 0.0 | 0.00 | 0.00 | 0.00 | 74 | 1007.7 |
| 20260505073122 | 15 | 225 | 0.0 | 0.0 | 0.00 | 0.00 | 0.00 | 74 | 1007.6 |
| 20260505072122 | 15 | 113 | 0.0 | 0.0 | 0.00 | 0.00 | 0.00 | 73 | 1007.6 |
| 20260505071122 | 15 | 135 | 0.0 | 0.0 | 0.00 | 0.00 | 0.00 | 72 | 1007.6 |
| 20260505070122 | 15 | 23 | 0.0 | 0.0 | 0.00 | 0.00 | 0.00 | 72 | 1007.6 |
| 20260505065143 | 15 | 113 | 0.0 | 0.0 | 0.00 | 0.00 | 0.00 | 71 | 1007.7 |
| 20260505064122 | 15 | 202 | 0.0 | 1.6 | 0.00 | 0.00 | 0.00 | 71 | 1007.9 |
| 20260505063143 | 15 | 214 | 0.0 | 1.6 | 0.00 | 0.00 | 0.00 | 71 | 1008.0 |
| 20260505062122 | 15 | 220 | 1.6 | 4.8 | 0.00 | 0.00 | 0.00 | 71 | 1008.0 |
| 20260505061143 | 15 | 208 | 1.6 | 4.8 | 0.00 | 0.00 | 0.00 | 71 | 1008.0 |
| 20260505060122 | 15 | 228 | 0.0 | 3.2 | 0.00 | 0.00 | 0.00 | 71 | 1008.0 |
| 20260505055143 | 15 | 225 | 0.0 | 0.0 | 0.00 | 0.00 | 0.00 | 71 | 1008.0 |
| 20260505054143 | 15 | 227 | 0.0 | 3.2 | 0.00 | 0.00 | 0.00 | 71 | 1008.2 |
| 20260505053122 | 15 | 233 | 1.6 | 4.8 | 0.00 | 0.00 | 0.00 | 72 | 1008.1 |
| 20260505052123 | 15 | 237 | 0.0 | 3.2 | 0.00 | 0.00 | 0.00 | 72 | 1008.1 |
| 20260505051122 | 15 | 225 | 0.0 | 4.8 | 0.00 | 0.00 | 0.00 | 72 | 1008.1 |
| 20260505050123 | 15 | 229 | 1.6 | 3.2 | 0.00 | 0.00 | 0.00 | 72 | 1008.2 |
| 20260505041122 | 14 | 83 | 0.0 | 1.6 | 0.00 | 0.00 | 0.00 | 71 | 1007.9 |
| 20260505040122 | 14 | 68 | 0.0 | 1.6 | 0.00 | 0.00 | 0.00 | 71 | 1007.9 |
| 20260505035123 | 14 | 158 | 0.0 | 0.0 | 0.00 | 0.00 | 0.00 | 71 | 1007.8 |
| 20260505034122 | 14 | 68 | 0.0 | 0.0 | 0.00 | 0.00 | 0.00 | 71 | 1007.7 |
| 20260505033122 | 15 | 90 | 0.0 | 0.0 | 0.00 | 0.00 | 0.00 | 70 | 1007.7 |
| 20260505032126 | 15 | 338 | 0.0 | 0.0 | 0.00 | 0.00 | 0.00 | 69 | 1007.7 |
| 20260505031143 | 15 | 113 | 0.0 | 0.0 | 0.00 | 0.00 | 0.00 | 69 | 1007.7 |
| 20260505030143 | 15 | 23 | 0.0 | 0.0 | 0.00 | 0.00 | 0.00 | 68 | 1007.6 |
| 20260505025122 | 15 | 113 | 0.0 | 0.0 | 0.00 | 0.00 | 0.00 | 68 | 1008.0 |
| 20260505024122 | 15 | 113 | 0.0 | 0.0 | 0.00 | 0.00 | 0.00 | 68 | 1007.9 |
| 20260505023122 | 15 | 120 | 0.0 | 1.6 | 0.00 | 0.00 | 0.00 | 67 | 1007.9 |
| 20260505022123 | 15 | 59 | 0.0 | 3.2 | 0.00 | 0.00 | 0.00 | 66 | 1007.7 |
| 20260505021122 | 15 | 113 | 0.0 | 0.0 | 0.00 | 0.00 | 0.00 | 65 | 1007.7 |
| 20260505020122 | 16 | 24 | 0.0 | 3.2 | 0.00 | 0.00 | 0.00 | 65 | 1007.7 |
| 20260505015143 | 16 | 76 | 0.0 | 3.2 | 0.00 | 0.00 | 0.00 | 64 | 1007.7 |
| 20260505014123 | 16 | 56 | 0.0 | 3.2 | 0.00 | 0.00 | 0.00 | 64 | 1007.8 |
| 20260505013122 | 16 | 68 | 0.0 | 3.2 | 0.00 | 0.00 | 0.00 | 63 | 1007.8 |
| 20260505012126 | 16 | 17 | 0.0 | 1.6 | 0.00 | 0.00 | 0.00 | 62 | 1007.5 |
| 20260505011127 | 16 | 26 | 0.0 | 4.8 | 0.00 | 0.00 | 0.00 | 62 | 1007.5 |
| 20260505010122 | 17 | 333 | 1.6 | 4.8 | 0.00 | 0.00 | 0.00 | 62 | 1007.4 |
| 20260505005122 | 17 | 338 | 1.6 | 4.8 | 0.00 | 0.00 | 0.00 | 60 | 1007.3 |
| 20260505004143 | 17 | 349 | 1.6 | 6.4 | 0.00 | 0.00 | 0.00 | 60 | 1007.3 |
| 20260505003122 | 17 | 34 | 1.6 | 4.8 | 0.00 | 0.00 | 0.00 | 60 | 1007.3 |
| 20260505002123 | 18 | 313 | 0.0 | 3.2 | 0.00 | 0.00 | 0.00 | 59 | 1007.1 |
| 20260505001143 | 18 | 271 | 1.6 | 6.4 | 0.00 | 0.00 | 0.00 | 58 | 1007.1 |
| 20260505000147 | 18 | 338 | 1.6 | 4.8 | 0.00 | 0.00 | 0.00 | 57 | 1006.9 |
| 20260504235122 | 19 | 351 | 1.6 | 3.2 | 0.00 | 0.00 | 0.00 | 56 | 1006.8 |
| 20260504234122 | 20 | 16 | 1.6 | 3.2 | 0.00 | 0.00 | 0.00 | 55 | 1006.9 |
| 20260504233123 | 20 | 249 | 3.2 | 4.8 | 0.00 | 0.00 | 0.00 | 53 | 1006.8 |
| 20260504232122 | 21 | 273 | 1.6 | 4.8 | 0.00 | 0.00 | 0.00 | 51 | 1006.9 |
| 20260504231122 | 21 | 110 | 3.2 | 6.4 | 0.00 | 0.00 | 0.00 | 50 | 1006.9 |
| 20260504230122 | 22 | 137 | 1.6 | 4.8 | 0.00 | 0.00 | 0.00 | 49 | 1006.9 |
| 20260504225147 | 22 | 259 | 1.6 | 6.4 | 0.00 | 0.00 | 0.00 | 49 | 1007.0 |
| 20260504224122 | 22 | 247 | 3.2 | 8.0 | 0.00 | 0.00 | 0.00 | 45 | 1007.0 |
| 20260504223122 | 23 | 234 | 4.8 | 9.7 | 0.00 | 0.00 | 0.00 | 46 | 1006.9 |
| 20260504222122 | 23 | 241 | 6.4 | 11.3 | 0.00 | 0.00 | 0.00 | 45 | 1006.9 |
| 20260504221125 | 23 | 242 | 4.8 | 9.7 | 0.00 | 0.00 | 0.00 | 44 | 1006.9 |
| 20260504220122 | 23 | 229 | 4.8 | 9.7 | 0.00 | 0.00 | 0.00 | 45 | 1006.9 |
| 20260504215143 | 23 | 243 | 4.8 | 11.3 | 0.00 | 0.00 | 0.00 | 44 | 1007.1 |
| 20260504214126 | 23 | 238 | 4.8 | 8.0 | 0.00 | 0.00 | 0.00 | 44 | 1006.9 |
| 20260504213122 | 24 | 212 | 4.8 | 9.7 | 0.00 | 0.00 | 0.00 | 43 | 1007.0 |
| 20260504212125 | 24 | 237 | 6.4 | 9.7 | 0.00 | 0.00 | 0.00 | 42 | 1007.1 |
| 20260504211143 | 24 | 214 | 4.8 | 9.7 | 0.00 | 0.00 | 0.00 | 42 | 1007.1 |
| 20260504210143 | 24 | 250 | 4.8 | 9.7 | 0.00 | 0.00 | 0.00 | 42 | 1007.0 |
| 20260504205126 | 23 | 228 | 6.4 | 12.9 | 0.00 | 0.00 | 0.00 | 42 | 1007.1 |
| 20260504204122 | 24 | 243 | 6.4 | 9.7 | 0.00 | 0.00 | 0.00 | 43 | 1007.2 |
| 20260504203143 | 24 | 230 | 4.8 | 8.0 | 0.00 | 0.00 | 0.00 | 43 | 1007.3 |
| 20260504202122 | 23 | 243 | 8.0 | 11.3 | 0.00 | 0.00 | 0.00 | 42 | 1007.4 |
| 20260504201122 | 23 | 250 | 6.4 | 12.9 | 0.00 | 0.00 | 0.00 | 42 | 1007.4 |
| 20260504200122 | 23 | 249 | 6.4 | 11.3 | 0.00 | 0.00 | 0.00 | 43 | 1007.5 |
| 20260504195122 | 23 | 227 | 8.0 | 12.9 | 0.00 | 0.00 | 0.00 | 43 | 1007.8 |
| 20260504194122 | 23 | 235 | 8.0 | 11.3 | 0.00 | 0.00 | 0.00 | 44 | 1008.1 |
| 20260504193122 | 23 | 231 | 6.4 | 9.7 | 0.00 | 0.00 | 0.00 | 43 | 1008.3 |
| 20260504192143 | 23 | 237 | 8.0 | 9.7 | 0.00 | 0.00 | 0.00 | 44 | 1008.3 |
| 20260504191126 | 23 | 236 | 6.4 | 12.9 | 0.00 | 0.00 | 0.00 | 44 | 1008.3 |
| 20260504190124 | 23 | 258 | 6.4 | 11.3 | 0.00 | 0.00 | 0.00 | 44 | 1008.6 |
| 20260504185146 | 22 | 244 | 8.0 | 12.9 | 0.00 | 0.00 | 0.00 | 44 | 1008.8 |
| 20260504184125 | 22 | 224 | 4.8 | 14.5 | 0.00 | 0.00 | 0.00 | 45 | 1008.9 |
| 20260504183126 | 22 | 237 | 6.4 | 11.3 | 0.00 | 0.00 | 0.00 | 44 | 1009.1 |
| 20260504182146 | 22 | 243 | 6.4 | 9.7 | 0.00 | 0.00 | 0.00 | 43 | 1009.0 |
| 20260504181125 | 22 | 252 | 4.8 | 9.7 | 0.00 | 0.00 | 0.00 | 44 | 1009.0 |
| 20260504180146 | 22 | 248 | 8.0 | 12.9 | 0.00 | 0.00 | 0.00 | 45 | 1009.2 |
| 20260504175126 | 22 | 243 | 8.0 | 11.3 | 0.00 | 0.00 | 0.00 | 44 | 1009.3 |
| 20260504174146 | 21 | 224 | 6.4 | 11.3 | 0.00 | 0.00 | 0.00 | 46 | 1009.4 |
| 20260504173126 | 22 | 255 | 6.4 | 11.3 | 0.00 | 0.00 | 0.00 | 46 | 1009.6 |
| 20260504172126 | 21 | 234 | 6.4 | 12.9 | 0.00 | 0.00 | 0.00 | 46 | 1009.9 |
| 20260504171125 | 21 | 245 | 6.4 | 11.3 | 0.00 | 0.00 | 0.00 | 44 | 1009.9 |
| 20260504170122 | 20 | 239 | 6.4 | 9.7 | 0.00 | 0.00 | 0.00 | 45 | 1010.1 |
| 20260504160143 | 20 | 265 | 4.8 | 8.0 | 0.00 | 0.00 | 0.00 | 47 | 1010.8 |
| 20260504151122 | 18 | 237 | 4.8 | 8.0 | 0.00 | 0.00 | 0.00 | 48 | 1011.2 |
| 20260504150122 | 17 | 240 | 6.4 | 12.9 | 0.00 | 0.00 | 0.00 | 47 | 1011.4 |
| 20260504141122 | 16 | 239 | 4.8 | 8.0 | 0.00 | 0.00 | 0.00 | 52 | 1011.7 |
| 20260504140143 | 15 | 267 | 4.8 | 8.0 | 0.00 | 0.00 | 0.00 | 53 | 1011.7 |
| 20260504130122 | 12 | 252 | 1.6 | 3.2 | 0.00 | 0.00 | 0.00 | 65 | 1011.9 |
| 20260504120122 | 8 | 225 | 0.0 | 3.2 | 0.00 | 0.00 | 0.00 | 70 | 1012.0 |